Tracking 31027 objects as of 19-Jul-2025
HD Live streaming from Space Station
objects crossing your sky now

IRIDIUM 163

Track IRIDIUM 163 now!
10-day predictions
IRIDIUM 163 is classified as:


NORAD ID: 43575
Int'l Code: 2018-061G
Perigee: 783.2 km
Apogee: 786.4 km
Inclination: 86.4 °
Period: 100.4 minutes
Semi major axis: 7155 km
RCS: Unknown
Launch date: July 25, 2018
Source: United States (US)
Launch site: AIR FORCE WESTERN TEST RANGE (AFWTR)
Your satellite tracking list
CREW DRAGON DEMO-2 DEB
Track 1 satellite(s)




NASA's NSSDC Master Catalog

Two Line Element Set (TLE):
1 43575U 18061G   25199.50975096  .00000022  00000-0  86271-6 0  9991
2 43575  86.3989 196.1336 0002279  85.0857 275.0599 14.34217633365556
Source of the keplerian elements: AFSPC